Home   Weather   Pomona   Past weeks

Flag for USA Past Weather in Pomona, California, USA — Yesterday and Last 2 Weeks

Now
81 °F

Scattered clouds.


Feels Like: 80 °F
Forecast: 55 / 81 °F
Wind: 17 mph from West

Location: Chino Airport

Current Time: Apr 23, 2017 at 4:42:25 pm

Latest Report: Apr 23, 2017 at 3:53 pm


Visibility: 10 mi

Pressure: 29.80 "Hg

Humidity: 38%

Dew Point: 53 °F

Location of PomonaLocation

Past Weather in Pomona — Graph

°F

Pomona Temperature Yesterday

Maximum temperature yesterday: 95 °F (at 1:53 pm)
Minimum temperature yesterday: 54 °F (at 4:53 am)
Average temperature yesterday: 74 °F

High & Low Weather Summary for the Past Weeks

 TemperatureHumidityPressure
High95 °F (Apr 21, 2:53 pm)97% (Apr 13, 4:53 am)30.13 "Hg (Apr 13, 4:53 am)
Low44 °F (Apr 9, 2:53 am)12% (Apr 21, 1:53 pm)29.81 "Hg (Apr 22, 3:53 pm)
Average64 °F57%30.00 "Hg
* Reported Apr 8 2:53 pm — Apr 23 2:53 pm, Pomona, Weather by CustomWeather, © 2017

Note: Actual official high and low records may vary slightly from our data, if they occured in-between our weather recording intervals... More about our weather records

Advertising

Pomona Weather History for the Previous 24 Hours

Scroll right to see more
 ConditionsComfort  
Time TempWeatherWind HumidityBarometerVisibility
2:53 pm
Sun, Apr 23
82 °FPassing clouds.18 mph37%29.82 "Hg10 mi
1:53 pm85 °FSunny.15 mph30%29.83 "Hg10 mi
12:53 pm83 °FPassing clouds.12 mph33%29.83 "Hg10 mi
11:53 am81 °FPassing clouds.8 mph37%29.85 "Hg10 mi
10:53 am79 °FScattered clouds.3 mph34%29.87 "Hg10 mi
9:53 am75 °FScattered clouds.No wind39%29.87 "Hg10 mi
8:53 am69 °FScattered clouds.No wind51%29.87 "Hg10 mi
7:53 am64 °FScattered clouds.No wind70%29.87 "Hg10 mi
6:53 am57 °FPartly sunny.5 mph81%29.85 "Hg10 mi
5:53 am57 °FClear.No wind81%29.84 "Hg6 mi
4:53 am57 °FClear.5 mph78%29.84 "Hg6 mi
3:53 am57 °FClear.No wind81%29.83 "Hg6 mi
2:53 am60 °FClear.No wind72%29.82 "Hg6 mi
1:53 am60 °FClear.No wind72%29.84 "Hg7 mi
12:53 am62 °FClear.5 mph65%29.85 "Hg7 mi
11:53 pm
Sat, Apr 22
62 °FClear.3 mph60%29.85 "Hg6 mi
10:53 pm67 °FClear.3 mph47%29.85 "Hg7 mi
9:53 pm67 °FClear.3 mph49%29.85 "Hg8 mi
8:53 pm70 °FClear.6 mph47%29.85 "Hg10 mi
7:53 pm72 °FPassing clouds.8 mph46%29.84 "Hg10 mi
6:53 pm81 °FScattered clouds.10 mph32%29.83 "Hg10 mi
5:53 pm86 °FScattered clouds.13 mph27%29.82 "Hg10 mi
4:53 pm90 °FScattered clouds.14 mph21%29.81 "Hg10 mi
Weather by CustomWeather, © 2017

See weather overviewHow to use our weather pages